Regional Weather Roundup
Issued by NWS

Home | Current Version | Previous Version | Graphics & Text | Print | Product List | Glossary On
Versions: 1 2 3 4 5 6 7 8 9 10 11 12 13 14 15 16 17 18 19 20 21 22 23 24 25 26 27 28 29 30 31 32 33 34 35 36 37 38 39 40 41 42 43 44 45 46 47 48 49 50
000
ASUS43 KLSX 270057
RWRMO

WEATHER SUMMARY FOR MISSOURI
NATIONAL WEATHER SERVICE SPRINGFIELD MO
800 PM CDT FRI AUG 26 2016

NOTE: "FAIR" INDICATES FEW OR NO CLOUDS BELOW 12,000 FEET WITH NO
       SIGNIFICANT WEATHER AND/OR OBSTRUCTIONS TO VISIBILITY.
       CURRENT SKY AND/OR WEATHER CONDITIONS ARE NOT AVAILABLE FOR
       CHILLICOTHE AND FARMINGTON.

MOZ001>031-035>038-043-044-053-054-270200-
...NORTHERN AND WESTERN MISSOURI...

CITY           SKY/WX    TMP DP  RH WIND       PRES   REMARKS
KANSAS CTY INT CLOUDY    69  68  96 N7        30.00R THUNDER
LEE`S SUMMIT   CLOUDY    79  71  76 S9        29.99R
ST JOSEPH      LGT RAIN  69  68  96 N6        30.01R

$$
MOZ066>068-077>081-088>096-101>105-270200-
...SOUTHWEST MISSOURI...

CITY           SKY/WX    TMP DP  RH WIND       PRES   REMARKS
SPRINGFIELD    CLOUDY    77  71  82 S7        30.06R
JOPLIN         MOCLDY    76  71  85 CALM      30.04R
BRANSON        MOCLDY    77  73  88 CALM      30.08R

$$
MOZ032>034-039>042-045>050-055>058-069>072-270200-
...CENTRAL MISSOURI...

CITY           SKY/WX    TMP DP  RH WIND       PRES   REMARKS
COLUMBIA       NOT AVBL
JEFFERSON CITY CLOUDY    79  75  87 SE3       30.02R
ROLLA          CLOUDY    74  69  85 SE10      30.06R
SEDALIA        MOCLDY    78  73  84 S6        30.03R

$$
MOZ051-052-059>065-270200-
...EAST CENTRAL MISSOURI...

CITY           SKY/WX    TMP DP  RH WIND       PRES   REMARKS
ST LOUIS INTL  CLOUDY    83  69  62 S12       30.05R

$$
MOZ072>076-082>087-097>100-106>115-270200-
...SOUTH CENTRAL AND SOUTHEAST MISSOURI...

CITY           SKY/WX    TMP DP  RH WIND       PRES   REMARKS
CAPE GIRARDEAU CLOUDY    76  72  87 S8        30.07S
POPLAR BLUFF   CLOUDY    74  69  85 S12       30.08S
WEST PLAINS    CLOUDY    80  70  71 SE5       30.09R

$$



USA.gov is the U.S. government's official web portal to all federal, state and local government web resources and services.